User: anonymous   Login
Location: Eymir
(36.7333°N, 29.7833°E)
Time: 23:40:14
(UTC+00:00)
Language:

Cosmos 2154 Rocket - Orbit

View from above orbital plane
View from above orbital plane
View from above satellite
View from above satellite

Ground track
Ground track

The orbit is defined by the following mean orbital elements,

1 21667U          26067.59396991 +.00000000 +00000-0 +78749-4 0 00006
2 21667  82.9096 156.0409 0020800  14.9812 105.2571 13.75280998    01
Epoch (UTC): 08 March 2026 14:15:19
Eccentricity: 0.0020800
inclination: 82.9096°
perigee height: 965 km
apogee height: 996 km
right ascension of ascending node: 156.0409°
argument of perigee: 14.9812°
revolutions per day: 13.75280998
mean anomaly at epoch: 105.2571°

The dashed part of the orbit path shows where the satellite is in the earth's shadow,  

DLR